Wind_Speed
12 12 12 13 13 13 14 14 15 16 14 15 13 13 14 13 13 13 13 10 13 10 7 1 5 5 8 12 16 13 7 11 15 16 13 6 5 5 10 17 19 15 8 2 5
13 13 13 14 13 12 12 12 12 14 14 13 12 10 10 10 13 14 13 10 10 4 3 5 5 7 10 11 10 7 9 12 13 12 9 11 2 8 13 9 13 17 11 13 8
14 14 13 13 11 11 10 10 10 11 12 12 10 7 6 6 7 2 4 3 2 3 6 5 5 6 11 13 13 10 14 14 17 19 17 11 15 18 10 9 18 14 16 21 18
15 15 14 14 11 11 10 9 10 10 11 10 8 5 2 2 2 3 4 4 1 4 3 3 3 5 4 8 11 13 18 17 19 24 21 12 17 17 20 17 17 22 18 4 11
16 14 12 12 12 11 10 10 10 10 11 10 6 2 3 2 4 8 8 4 1 5 6 4 5 7 4 5 8 12 13 20 21 24 21 18 18 17 23 23 19 19 19 17 13
17 14 11 11 11 11 11 10 9 9 9 8 4 3 3 4 5 8 5 3 3 5 4 6 1 6 6 9 5 8 12 15 18 20 21 17 17 19 17 23 26 26 26 18 16
16 14 11 11 11 11 11 10 8 7 7 6 1 5 3 4 6 4 3 4 3 4 3 4 5 3 4 5 9 12 10 13 18 21 12 9 11 11 31 30 27 25 28 27 24
16 14 12 11 11 10 11 9 6 6 4 2 3 6 4 6 7 3 3 4 3 3 5 6 7 4 7 7 5 5 7 4 5 5 8 17 10 11 20 20 28 28 26 28 31
17 14 12 11 10 10 10 6 5 4 4 5 6 4 1 3 0 4 3 1 3 3 2 1 3 5 5 3 4 6 4 7 9 6 2 8 6 10 17 8 9 14 20 26 31
17 14 13 12 11 9 7 3 2 1 5 5 2 2 1 1 2 1 1 4 1 2 1 3 5 3 3 5 4 3 5 6 7 1 2 7 9 12 22 21 19 20 19 21 22
16 14 14 12 11 9 4 3 3 2 2 3 1 2 2 3 1 1 2 1 2 5 4 8 4 6 9 13 13 9 8 10 11 13 12 12 13 12 19 20 18 23 21 23 28
15 14 13 11 9 7 3 2 2 2 0 2 2 1 3 4 2 4 3 3 5 6 10 3 8 12 7 6 6 7 8 11 10 7 2 9 14 13 20 20 22 26 26 24 25
15 13 11 9 6 5 6 4 2 1 2 2 2 1 2 2 2 5 4 2 6 8 8 7 6 3 2 7 7 8 9 9 10 11 8 9 10 9 11 19 24 29 26 20 18
15 13 10 6 2 5 4 5 1 2 1 5 3 2 0 0 2 2 3 2 2 4 5 7 4 3 5 9 8 8 5 5 7 6 3 5 5 7 14 9 2 14 23 24 21
15 13 9 5 3 4 5 2 2 3 2 4 3 0 3 2 1 2 2 3 4 5 2 2 1 2 5 6 3 4 4 6 6 6 7 4 2 6 8 3 12 11 24 27 27
15 10 6 4 4 5 2 2 3 2 5 2 2 5 2 1 2 1 3 3 4 4 6 12 10 4 3 8 3 9 6 8 6 2 2 8 7 4 0 7 12 14 21 22 27
14 6 5 5 4 3 2 2 2 2 2 4 3 5 5 3 2 2 2 2 2 3 2 3 8 4 1 4 7 4 4 3 2 0 6 3 1 7 6 9 14 11 21 22 25
12 1 4 8 5 3 4 1 1 1 2 3 2 6 2 5 2 4 3 4 7 4 3 3 3 3 4 2 4 4 5 3 5 1 2 2 4 3 9 17 22 22 25 27 28
8 1 5 9 3 4 2 1 2 3 1 3 1 2 1 2 3 4 4 4 4 7 3 5 2 3 2 3 2 1 3 4 2 2 1 4 6 8 14 10 13 20 25 25 29
4 2 3 7 3 4 3 2 1 1 1 1 2 1 1 3 3 4 4 1 3 1 1 2 4 2 3 2 7 4 5 0 2 2 5 5 6 4 10 10 12 13 24 26 28
4 2 5 2 5 4 1 3 2 3 1 2 1 0 1 1 3 3 3 3 2 3 4 3 3 2 8 2 3 1 2 0 3 2 3 1 4 5 13 13 11 14 24 24 28
3 1 6 4 4 2 2 4 1 4 1 1 3 1 2 3 3 3 2 4 3 4 2 5 3 4 6 11 7 3 4 3 2 5 3 2 9 16 14 13 18 25 25 21 26
2 0 4 4 2 2 0 3 1 3 2 1 1 2 4 1 1 1 4 7 6 3 3 4 3 4 6 4 5 5 4 3 2 3 6 2 7 1 15 19 23 24 19 24 27
1 1 6 8 6 3 2 1 3 1 1 2 2 2 3 1 3 3 3 4 5 0 1 2 3 5 6 3 4 7 12 10 2 2 4 12 19 19 24 27 31 23 19 24 31
2 2 2 2 3 4 2 4 2 1 0 2 2 4 4 2 2 3 3 5 7 8 4 2 5 6 9 10 9 13 13 12 9 9 7 25 15 18 13 18 21 38 34 31 26
2 3 4 3 2 3 2 3 5 2 2 3 3 4 3 6 7 5 2 1 5 4 6 4 4 6 8 8 11 17 16 16 16 15 14 19 24 11 21 23 21 25 32 39 37
4 8 4 7 3 2 2 2 2 1 5 9 6 3 9 9 12 12 16 17 12 6 6 4 3 2 9 8 5 7 7 14 11 13 8 14 21 8 7 9 13 20 25 35 31
Wind_Direction
333 328 327 328 322 319 317 314 313 308 306 304 296 285 272 285 299 311 294 269 280 287 248 130 207 220 219 232 229 226 244 248 252 261 271 243 162 228 257 244 264 274 276 233 141
339 334 332 332 331 328 325 318 317 313 310 304 299 291 280 293 304 300 267 284 288 253 174 195 217 203 219 228 224 231 227 252 259 258 303 313 217 252 272 226 245 261 236 254 221
334 333 331 331 332 332 332 329 326 320 310 304 304 292 295 306 339 208 272 309 313 198 164 205 233 220 242 235 230 220 245 279 277 291 314 319 319 301 273 282 280 274 234 236 222
335 332 333 334 336 334 331 334 329 326 319 313 313 297 258 259 3 281 294 321 295 173 145 180 175 206 234 238 234 265 271 276 284 291 304 303 292 274 276 277 269 276 303 168 219
333 332 334 335 336 334 337 339 333 333 324 315 313 267 162 248 261 283 294 297 195 171 151 188 185 200 261 292 287 270 264 273 284 290 283 282 278 273 274 279 268 272 276 265 249
336 331 333 335 335 335 340 336 333 330 323 320 310 196 148 254 278 282 285 264 199 183 197 204 191 236 308 287 251 295 311 291 282 278 275 270 266 263 261 257 261 268 265 265 258
334 330 333 338 333 334 335 335 340 326 330 337 318 161 242 260 307 279 254 258 243 189 221 220 229 196 355 244 281 296 299 287 265 253 238 261 268 249 257 255 259 254 251 261 254
335 329 332 334 328 332 333 340 347 334 346 13 127 114 296 268 263 275 276 306 275 247 203 230 219 238 254 305 300 236 247 276 314 202 235 205 256 280 283 260 236 245 251 253 256
332 327 329 331 329 329 332 345 9 24 62 93 65 115 145 318 45 283 204 242 271 269 235 270 179 220 197 237 272 210 269 259 284 220 313 182 256 281 315 315 308 250 251 251 249
331 329 328 331 333 334 339 16 30 48 49 62 118 224 216 64 267 124 214 143 79 183 198 201 226 232 214 218 232 332 254 294 272 127 187 273 280 283 281 271 273 261 257 263 268
333 332 329 332 332 341 330 21 337 336 67 293 87 301 105 306 235 81 199 359 151 213 240 186 244 230 233 212 239 276 293 290 286 301 305 291 284 268 274 275 271 259 254 249 255
336 335 332 332 328 343 338 145 183 221 133 281 239 290 271 236 218 199 190 246 189 240 232 171 245 252 326 341 311 297 283 278 288 283 303 287 282 278 269 264 252 260 259 258 252
339 338 335 332 329 348 40 45 6 87 247 154 181 128 155 156 289 149 199 233 251 262 253 227 283 122 331 302 263 254 250 270 271 296 287 284 278 270 280 254 250 257 266 272 274
338 338 339 339 335 3 22 13 49 107 133 150 175 188 155 310 204 242 209 227 239 282 331 266 323 16 299 263 276 291 327 320 323 323 254 42 286 301 291 302 145 29 40 32 21
342 342 347 16 10 21 335 14 88 72 325 29 99 260 286 256 50 148 224 207 271 315 96 256 337 301 282 269 306 233 354 305 302 289 307 217 222 256 275 231 70 61 54 43 32
342 346 360 4 20 15 19 83 54 70 247 48 32 1 303 172 126 170 201 222 254 280 245 255 282 237 243 328 298 319 298 271 246 265 293 227 189 275 222 91 94 67 68 49 29
343 353 16 27 8 20 100 61 31 168 346 359 352 353 327 6 281 337 234 102 22 355 298 317 223 128 90 271 229 235 301 316 338 269 232 51 296 257 39 94 105 79 65 47 28
342 33 26 22 32 56 101 352 170 68 29 333 341 312 33 5 53 329 275 165 45 354 289 269 326 116 117 262 340 233 185 189 251 303 349 212 242 194 109 107 100 66 54 31 22
341 2 19 4 24 86 103 127 0 54 330 358 261 279 110 352 344 315 57 31 58 19 335 345 238 47 108 2 343 32 226 253 272 202 60 234 282 315 126 126 96 59 35 26 20
349 116 328 355 43 111 78 113 119 65 328 275 288 349 292 4 315 2 165 33 116 37 166 60 285 250 118 227 237 222 347 16 281 264 238 256 231 172 107 76 47 39 21 10 9
77 296 328 14 118 74 65 80 164 106 351 323 343 179 36 359 321 318 25 77 12 21 312 11 237 321 357 213 73 334 291 308 272 217 265 307 282 63 81 56 36 24 11 1 5
100 210 6 137 53 43 110 147 109 144 206 213 278 124 329 45 320 296 338 82 75 359 18 40 297 275 275 306 329 0 331 19 228 290 306 229 241 104 69 34 15 352 350 2 354
145 205 0 139 123 104 99 146 211 173 179 232 200 33 101 125 344 272 282 107 76 55 69 358 310 320 304 243 38 30 43 69 269 235 233 245 255 342 348 349 342 344 357 351 345
114 188 37 68 70 89 135 192 158 127 326 292 339 92 96 41 256 263 277 140 143 219 23 288 244 194 237 307 3 299 297 299 302 212 310 269 290 316 329 329 323 339 348 344 338
84 93 83 98 61 88 12 141 198 170 31 286 251 233 161 193 295 251 254 291 202 230 194 209 231 222 258 277 285 283 280 283 260 250 231 276 289 289 291 286 307 325 332 337 340
116 147 86 102 100 143 120 191 199 172 191 221 209 296 330 184 198 194 144 222 227 255 173 188 248 269 269 263 269 269 261 261 262 267 260 273 276 305 305 300 311 312 318 322 322
133 142 147 149 153 146 202 207 254 333 238 241 300 322 278 274 280 270 262 251 238 200 201 198 182 166 257 249 283 300 230 245 247 248 222 265 269 271 271 267 272 291 306 304 309
Height
1506 1504 1501 1499 1498 1496 1494 1493 1492 1490 1488 1489 1488 1488 1489 1490 1489 1489 1488 1487 1485 1484 1485 1487 1488 1490 1493 1493 1493 1493 1493 1488 1486 1482 1476 1472 1473 1476 1479 1481 1481 1480 1481 1481 1482
1505 1502 1500 1498 1496 1494 1492 1491 1489 1488 1487 1485 1485 1485 1487 1487 1487 1485 1486 1484 1483 1483 1484 1486 1489 1490 1492 1492 1491 1490 1490 1485 1476 1473 1473 1470 1472 1475 1477 1476 1479 1479 1480 1481 1481
1504 1501 1498 1496 1494 1492 1490 1489 1486 1485 1485 1484 1484 1483 1486 1486 1484 1486 1484 1483 1483 1483 1484 1486 1488 1490 1489 1490 1488 1487 1487 1481 1476 1474 1474 1473 1474 1474 1474 1476 1476 1476 1477 1476 1478
1503 1499 1497 1495 1492 1491 1489 1486 1485 1483 1484 1483 1483 1483 1484 1486 1487 1485 1485 1482 1482 1483 1484 1486 1487 1489 1488 1488 1487 1487 1484 1482 1478 1476 1475 1475 1475 1474 1474 1474 1474 1473 1474 1476 1477
1502 1498 1496 1493 1491 1489 1487 1485 1483 1482 1482 1481 1481 1482 1484 1486 1486 1483 1484 1483 1482 1483 1484 1486 1486 1488 1489 1485 1485 1484 1482 1480 1478 1476 1474 1475 1474 1474 1471 1472 1472 1472 1472 1473 1475
1501 1497 1494 1492 1490 1489 1486 1484 1481 1481 1480 1479 1480 1481 1484 1488 1484 1483 1484 1483 1482 1482 1484 1486 1486 1487 1487 1486 1485 1481 1481 1478 1476 1473 1473 1472 1470 1472 1468 1468 1468 1468 1469 1470 1471
1499 1496 1493 1491 1489 1487 1485 1482 1480 1480 1479 1478 1479 1481 1484 1486 1483 1483 1483 1483 1483 1483 1485 1485 1486 1487 1486 1485 1484 1482 1481 1477 1471 1466 1469 1469 1468 1465 1460 1463 1463 1464 1464 1466 1468
1498 1494 1492 1490 1488 1485 1483 1481 1480 1479 1478 1478 1479 1480 1484 1483 1483 1483 1483 1484 1484 1483 1483 1483 1484 1486 1486 1485 1483 1482 1480 1478 1460 1460 1460 1466 1466 1457 1456 1454 1455 1457 1459 1460 1461
1496 1493 1491 1489 1487 1484 1482 1479 1480 1479 1477 1479 1481 1482 1483 1484 1484 1482 1483 1483 1484 1484 1484 1485 1485 1486 1485 1486 1485 1478 1480 1471 1464 1457 1457 1461 1462 1454 1454 1452 1452 1452 1453 1454 1455
1494 1493 1490 1488 1486 1484 1481 1479 1479 1480 1478 1479 1481 1486 1484 1485 1482 1483 1483 1482 1484 1485 1486 1486 1486 1485 1484 1484 1483 1472 1474 1468 1467 1460 1461 1462 1461 1455 1453 1452 1451 1449 1449 1449 1449
1493 1492 1489 1486 1485 1483 1482 1480 1484 1482 1480 1482 1482 1482 1481 1484 1483 1482 1484 1484 1483 1485 1484 1484 1486 1484 1476 1476 1472 1471 1474 1475 1467 1462 1462 1461 1457 1454 1448 1447 1445 1442 1443 1443 1445
1492 1490 1488 1486 1483 1483 1482 1480 1480 1481 1480 1479 1480 1481 1481 1481 1482 1482 1483 1485 1483 1482 1478 1483 1485 1476 1472 1472 1474 1474 1475 1473 1465 1460 1461 1459 1454 1449 1440 1438 1440 1437 1437 1439 1441
1492 1489 1487 1485 1483 1483 1480 1482 1480 1479 1480 1480 1480 1481 1481 1483 1481 1480 1482 1482 1481 1480 1477 1481 1472 1471 1474 1475 1475 1474 1475 1472 1470 1462 1459 1458 1452 1442 1432 1429 1432 1433 1435 1436 1437
1490 1487 1485 1484 1486 1482 1480 1481 1481 1479 1479 1480 1480 1480 1481 1480 1481 1481 1481 1482 1479 1477 1474 1474 1470 1472 1474 1474 1474 1477 1468 1467 1468 1469 1477 1456 1480 1446 1434 1430 1430 1435 1437 1436 1436
1489 1487 1485 1484 1483 1482 1484 1480 1480 1480 1486 1481 1480 1481 1481 1480 1480 1480 1480 1481 1478 1475 1480 1472 1470 1472 1473 1471 1468 1471 1470 1470 1469 1472 1472 1460 1479 1446 1432 1431 1439 1440 1441 1442 1442
1488 1486 1484 1484 1483 1483 1482 1481 1482 1484 1486 1485 1481 1481 1479 1479 1478 1478 1479 1480 1479 1478 1474 1472 1470 1472 1472 1470 1470 1470 1470 1468 1467 1471 1496 1459 1461 1448 1435 1438 1441 1443 1444 1445 1445
1487 1485 1484 1483 1482 1482 1482 1484 1484 1485 1487 1492 1488 1485 1484 1482 1480 1477 1476 1478 1481 1486 1473 1468 1465 1468 1472 1471 1469 1473 1477 1498 1495 1492 1490 1447 1451 1442 1432 1435 1439 1443 1446 1448 1447
1486 1484 1484 1483 1482 1482 1483 1487 1488 1494 1495 1491 1489 1487 1481 1486 1481 1480 1478 1482 1487 1486 1484 1479 1478 1467 1471 1471 1473 1471 1477 1498 1497 1485 1471 1451 1462 1438 1432 1436 1441 1445 1448 1450 1448
1484 1484 1483 1482 1482 1482 1484 1487 1491 1494 1495 1493 1489 1490 1489 1487 1487 1481 1485 1487 1493 1493 1494 1487 1472 1471 1472 1473 1473 1470 1481 1468 1488 1486 1492 1461 1441 1431 1432 1439 1443 1447 1450 1451 1450
1483 1482 1483 1482 1481 1482 1485 1486 1495 1493 1494 1492 1491 1495 1493 1497 1489 1484 1481 1492 1493 1493 1494 1492 1493 1469 1470 1472 1471 1473 1474 1483 1487 1502 1494 1456 1444 1438 1439 1444 1448 1451 1454 1453 1451
1483 1484 1483 1482 1481 1482 1487 1492 1494 1495 1495 1494 1495 1496 1494 1498 1494 1491 1487 1496 1495 1495 1495 1493 1493 1477 1474 1470 1473 1479 1481 1479 1475 1472 1472 1476 1454 1433 1442 1451 1456 1457 1458 1455 1453
1481 1483 1482 1482 1485 1487 1490 1493 1494 1494 1495 1494 1494 1493 1497 1500 1499 1493 1489 1491 1496 1497 1501 1498 1499 1497 1483 1475 1473 1475 1480 1480 1489 1485 1477 1471 1453 1446 1450 1457 1460 1459 1457 1456 1456
1481 1482 1482 1480 1485 1491 1494 1493 1492 1493 1494 1494 1492 1493 1496 1504 1511 1500 1495 1497 1498 1498 1501 1501 1506 1517 1491 1479 1484 1487 1487 1492 1496 1495 1487 1489 1453 1431 1441 1451 1459 1459 1456 1455 1453
1483 1483 1483 1482 1486 1489 1493 1494 1494 1494 1494 1495 1494 1494 1497 1505 1502 1506 1497 1497 1498 1500 1501 1501 1504 1512 1502 1488 1498 1497 1491 1490 1498 1513 1503 1484 1462 1463 1454 1449 1451 1453 1455 1454 1450
1482 1484 1486 1487 1490 1491 1492 1494 1493 1495 1496 1496 1496 1496 1498 1509 1507 1508 1502 1498 1496 1498 1500 1502 1513 1502 1499 1496 1498 1495 1493 1491 1496 1494 1502 1467 1484 1470 1473 1464 1455 1444 1446 1449 1446
1482 1484 1486 1489 1490 1491 1493 1494 1493 1494 1496 1494 1498 1495 1495 1501 1500 1507 1501 1500 1498 1496 1497 1498 1509 1497 1500 1494 1493 1490 1487 1486 1483 1482 1482 1473 1465 1465 1464 1461 1458 1456 1451 1444 1440
1481 1483 1485 1488 1489 1491 1491 1492 1493 1492 1493 1493 1494 1495 1494 1493 1493 1493 1493 1493 1492 1495 1497 1499 1502 1511 1500 1490 1493 1506 1481 1476 1477 1475 1482 1478 1461 1459 1458 1456 1454 1453 1452 1446 1442